�N����,����,�~����,�C��,���x,�C��,����,���ϕ���,�ő�u�ԕ���,�ő厞����,���˗�,�I�_���x,�n�����x,�ő啗���N��,DTYPE
"20/09/17","00:10",0.0,23.8,87.5,1006.2,302.1,1.0,1.9,336.0,0.00,21.6,25.3,"00:08:56",1
"20/09/17","00:20",0.0,23.7,87.8,1006.0,333.9,1.0,1.7,321.9,0.00,21.6,25.4,"00:10:48",1
"20/09/17","00:30",0.0,23.7,88.0,1006.2,298.4,0.8,1.3,326.3,0.00,21.6,25.0,"00:22:00",1
"20/09/17","00:40",0.0,23.6,88.3,1006.4,316.9,1.1,2.2,337.7,0.00,21.6,25.2,"00:35:44",1
"20/09/17","00:50",0.0,23.6,88.4,1006.2,319.0,1.0,1.3,328.6,0.00,21.6,25.1,"00:46:00",1
"20/09/17","01:00",0.0,23.6,88.5,1006.4,330.1,1.2,2.2,339.6,0.00,21.6,25.2,"00:58:08",1
"20/09/17","01:10",0.0,23.7,88.6,1006.2,312.8,1.0,1.4,335.6,0.00,21.7,25.3,"01:00:08",1
"20/09/17","01:20",0.0,23.7,88.6,1006.4,286.1,0.7,1.2,332.1,0.00,21.7,25.1,"01:19:52",1
"20/09/17","01:30",0.0,23.7,88.6,1006.7,320.3,1.1,1.8,335.6,0.00,21.7,25.2,"01:25:12",1
"20/09/17","01:40",0.0,23.7,88.7,1006.7,303.0,1.0,1.8,341.2,0.00,21.8,25.0,"01:38:32",1
"20/09/17","01:50",0.0,23.6,88.8,1006.4,343.2,1.1,2.0,338.1,0.00,21.7,25.2,"01:48:00",1
"20/09/17","02:00",0.0,23.4,89.0,1006.7,301.6,0.8,1.7,325.3,0.00,21.5,25.1,"01:51:12",1
"20/09/17","02:10",0.2,23.2,89.2,1006.4,271.8,0.7,1.2,236.7,0.00,21.4,25.0,"02:03:28",1
"20/09/17","02:20",0.0,23.2,89.4,1006.4,285.3,0.6,1.0,306.5,0.00,21.4,24.9,"02:12:56",1
"20/09/17","02:30",0.0,23.1,89.6,1006.4,298.0,0.6,0.9,331.4,0.00,21.3,25.1,"02:20:32",1
"20/09/17","02:40",0.0,23.1,89.7,1006.7,309.7,0.8,1.3,338.0,0.00,21.4,24.9,"02:34:32",1
"20/09/17","02:50",0.0,23.1,89.9,1006.4,321.4,0.7,1.3,335.3,0.00,21.4,24.8,"02:49:44",1
"20/09/17","03:00",0.0,23.2,90.1,1006.4,317.0,1.1,1.8,335.3,0.00,21.5,24.9,"02:54:16",1
"20/09/17","03:10",0.0,23.0,90.3,1006.4,283.7,0.6,0.9,294.9,0.00,21.4,24.8,"03:05:20",1
"20/09/17","03:20",0.0,23.0,90.5,1006.4,285.2,0.8,1.1,308.7,0.00,21.4,24.8,"03:16:16",1
"20/09/17","03:30",0.0,22.9,90.7,1006.7,279.8,1.0,1.3,267.7,0.00,21.3,24.9,"03:28:16",1
"20/09/17","03:40",0.0,23.0,90.9,1006.7,310.0,1.1,1.9,330.5,0.00,21.5,24.8,"03:39:28",1
"20/09/17","03:50",0.0,23.0,91.1,1006.2,332.1,1.1,2.0,336.8,0.00,21.5,24.8,"03:41:36",1
"20/09/17","04:00",0.0,23.0,91.3,1006.2,327.4,1.2,1.7,337.2,0.00,21.5,24.8,"03:54:40",1
"20/09/17","04:10",0.0,22.9,91.5,1006.7,304.3,1.1,1.7,333.0,0.00,21.5,24.7,"04:06:32",1
"20/09/17","04:20",0.0,22.9,91.6,1006.2,293.2,1.0,1.8,308.5,0.00,21.5,24.8,"04:19:20",1
"20/09/17","04:30",0.0,22.9,91.7,1006.2,304.9,1.0,1.6,331.1,0.00,21.5,24.8,"04:20:08",1
"20/09/17","04:40",0.0,22.9,91.8,1006.2,306.0,1.0,1.4,339.2,0.00,21.5,24.7,"04:39:12",1
"20/09/17","04:50",0.0,22.9,91.9,1006.2,305.0,0.8,1.7,335.8,0.00,21.6,24.8,"04:42:08",1
"20/09/17","05:00",0.0,22.9,92.1,1006.2,315.3,0.8,1.2,345.5,0.00,21.6,24.7,"04:55:44",1
"20/09/17","05:10",0.0,22.8,92.2,1006.4,301.4,0.3,1.2,300.2,0.00,21.5,24.8,"05:09:28",1
"20/09/17","05:20",0.0,22.7,92.3,1006.4,309.2,1.0,1.7,340.0,0.00,21.4,24.7,"05:18:00",1
"20/09/17","05:30",0.0,22.7,92.4,1006.2,329.6,0.7,1.3,343.9,0.00,21.4,24.8,"05:22:48",1
"20/09/17","05:40",0.0,22.6,92.6,1006.4,301.9,1.0,1.7,319.9,0.00,21.4,24.5,"05:32:56",1
"20/09/17","05:50",0.0,22.6,92.7,1006.7,303.2,1.0,1.4,316.8,0.00,21.4,24.7,"05:42:56",1
"20/09/17","06:00",0.0,22.6,92.8,1006.7,284.7,1.0,1.3,316.7,0.00,21.4,24.6,"05:50:56",1
"20/09/17","06:10",0.0,22.6,92.9,1006.7,313.6,1.1,1.3,326.6,0.00,21.4,24.6,"06:02:32",1
"20/09/17","06:20",0.0,22.8,93.0,1006.9,328.4,1.0,1.6,323.3,0.00,21.6,24.6,"06:11:52",1
"20/09/17","06:30",0.0,22.8,93.0,1007.1,301.4,0.7,1.2,325.4,0.00,21.6,24.7,"06:21:12",1
"20/09/17","06:40",0.0,22.9,93.1,1007.1,298.1,0.6,0.9,320.6,0.00,21.8,24.7,"06:37:20",1
"20/09/17","06:50",0.0,23.0,93.1,1007.4,285.4,0.8,1.3,317.5,0.00,21.9,24.6,"06:41:04",1
"20/09/17","07:00",0.0,23.2,93.2,1007.4,291.1,1.0,1.3,308.9,0.01,22.1,24.6,"06:53:52",1
"20/09/17","07:10",0.0,23.4,93.3,1007.4,328.2,1.0,1.8,337.8,0.04,22.3,24.7,"07:04:24",1
"20/09/17","07:20",0.0,23.5,93.2,1007.6,332.4,1.0,1.7,340.6,0.04,22.4,24.6,"07:16:56",1
"20/09/17","07:30",0.0,23.8,93.2,1007.6,129.4,0.2,1.2,334.9,0.07,22.7,24.8,"07:20:32",1
"20/09/17","07:40",0.0,24.2,93.1,1007.4,83.8,0.1,0.5,268.8,0.09,23.1,24.8,"07:39:28",1
"20/09/17","07:50",0.0,24.3,92.9,1007.4,331.4,0.8,1.8,352.4,0.11,23.1,24.7,"07:46:32",1
"20/09/17","08:00",0.0,24.7,92.4,1007.1,298.6,0.6,1.2,329.0,0.11,23.4,25.1,"07:55:12",1
"20/09/17","08:10",0.0,24.9,92.3,1006.7,246.6,0.5,1.1,239.3,0.13,23.6,24.9,"08:04:08",1
"20/09/17","08:20",0.0,25.3,91.4,1006.7,102.7,0.3,1.2,345.4,0.19,23.8,25.2,"08:19:36",1
"20/09/17","08:30",0.0,25.2,90.5,1006.9,340.9,0.8,2.0,336.4,0.17,23.6,25.2,"08:24:40",1
"20/09/17","08:40",0.0,25.4,89.3,1006.9,349.7,0.6,1.7,343.7,0.10,23.5,25.3,"08:35:04",1
"20/09/17","08:50",0.0,25.3,88.2,1007.1,334.6,1.0,2.4,342.7,0.05,23.2,25.3,"08:44:08",1
"20/09/17","09:00",0.0,25.3,87.3,1007.1,274.0,1.0,2.1,236.0,0.05,23.1,25.2,"08:53:12",1
"20/09/17","09:10",0.0,25.7,86.4,1006.7,308.5,0.8,1.9,339.2,0.08,23.3,25.4,"09:05:12",1
"20/09/17","09:20",0.0,25.9,85.1,1006.7,331.0,0.7,1.8,349.5,0.09,23.2,25.5,"09:19:52",1
"20/09/17","09:30",0.0,26.2,83.9,1006.4,328.6,0.8,2.2,341.0,0.11,23.3,25.5,"09:22:40",1
"20/09/17","09:40",0.0,26.4,82.7,1006.7,294.9,0.7,1.6,309.1,0.12,23.3,25.4,"09:30:24",1
"20/09/17","09:50",0.0,26.5,81.4,1006.9,329.1,1.0,2.7,348.7,0.13,23.1,25.5,"09:49:52",1
"20/09/17","10:00",0.0,26.6,80.7,1006.7,333.5,1.3,2.6,342.3,0.15,23.0,25.5,"09:55:28",1
"20/09/17","10:10",0.0,27.0,80.0,1006.4,301.8,0.8,2.6,342.8,0.16,23.3,25.7,"10:01:12",1
"20/09/17","10:20",0.0,27.2,78.8,1005.5,189.7,0.5,1.4,204.9,0.14,23.2,25.7,"10:14:32",1
"20/09/17","10:30",0.0,27.6,78.1,1005.7,349.8,0.3,1.7,15.1,0.19,23.5,25.9,"10:28:24",1
"20/09/17","10:40",0.0,28.2,75.5,1006.0,105.1,0.6,1.2,108.2,0.25,23.5,26.1,"10:31:28",1
"20/09/17","10:50",0.0,28.1,74.5,1006.2,238.5,0.6,1.3,174.5,0.13,23.2,26.2,"10:41:12",1
"20/09/17","11:00",0.0,28.3,74.1,1006.2,246.1,0.5,1.1,215.3,0.18,23.3,26.2,"10:54:08",1
"20/09/17","11:10",0.0,28.2,73.1,1006.2,235.8,0.7,2.2,239.0,0.13,23.0,26.3,"11:03:52",1
"20/09/17","11:20",0.0,28.0,73.8,1005.7,273.9,0.8,1.7,219.7,0.07,22.9,26.4,"11:12:48",1
"20/09/17","11:30",0.0,28.1,74.4,1005.5,338.3,1.1,2.0,354.4,0.19,23.2,26.3,"11:20:24",1
"20/09/17","11:40",0.0,28.8,72.6,1005.2,333.6,1.0,1.9,70.3,0.33,23.4,26.6,"11:39:04",1
"20/09/17","11:50",0.0,29.2,70.8,1005.2,349.1,1.0,2.1,48.8,0.29,23.4,26.6,"11:40:32",1
"20/09/17","12:00",0.0,29.6,69.0,1005.5,310.1,0.6,1.7,349.8,0.21,23.3,26.8,"11:54:48",1
"20/09/17","12:10",0.0,29.5,68.5,1005.5,332.0,0.5,2.5,313.4,0.15,23.1,26.8,"12:05:04",1
"20/09/17","12:20",0.0,29.8,68.2,1005.5,22.1,0.7,1.9,349.5,0.23,23.3,26.9,"12:12:32",1
"20/09/17","12:30",0.0,30.8,66.4,1005.7,35.3,0.6,1.4,347.6,0.41,23.9,27.0,"12:23:52",1
"20/09/17","12:40",0.0,30.5,65.7,1005.5,319.2,1.0,2.4,353.1,0.21,23.4,27.2,"12:35:36",1
"20/09/17","12:50",0.0,30.5,65.9,1005.2,228.7,0.8,1.8,234.3,0.28,23.4,27.4,"12:40:40",1
"20/09/17","13:00",0.0,31.2,64.2,1005.7,98.7,1.0,2.0,107.1,0.35,23.7,27.5,"12:53:12",1
"20/09/17","13:10",0.0,31.9,63.1,1005.7,173.3,1.7,3.6,220.2,0.57,24.0,27.7,"13:04:00",1
"20/09/17","13:20",0.0,31.7,61.8,1005.5,176.3,1.2,3.5,221.8,0.23,23.5,27.9,"13:11:12",1
"20/09/17","13:30",0.0,31.0,63.1,1005.2,161.0,1.0,2.9,113.9,0.16,23.2,27.8,"13:23:44",1
"20/09/17","13:40",0.0,30.4,65.0,1005.0,131.3,1.2,2.7,113.4,0.14,23.1,28.1,"13:34:00",1
"20/09/17","13:50",0.0,30.6,65.2,1004.8,290.7,0.7,2.0,215.2,0.13,23.4,27.9,"13:49:36",1
"20/09/17","14:00",0.0,30.5,66.2,1004.5,172.9,0.8,3.1,195.4,0.12,23.5,27.9,"13:50:32",1
"20/09/17","14:10",0.0,30.1,66.2,1004.5,196.7,1.5,2.7,200.8,0.10,23.1,27.9,"14:08:48",1
"20/09/17","14:20",0.0,29.8,67.3,1003.8,191.9,1.2,3.6,219.4,0.05,23.1,27.8,"14:12:00",1
"20/09/17","14:30",0.0,30.0,68.2,1003.6,187.7,1.1,2.2,222.9,0.10,23.5,27.8,"14:21:20",1
"20/09/17","14:40",0.0,30.0,68.3,1003.6,180.1,0.8,2.0,200.6,0.10,23.6,27.7,"14:30:08",1
"20/09/17","14:50",0.0,30.0,68.2,1003.6,185.9,0.7,2.2,225.4,0.10,23.5,27.7,"14:49:20",1
"20/09/17","15:00",0.0,29.9,68.6,1003.4,200.6,0.8,2.0,209.4,0.06,23.5,27.7,"14:58:16",1
"20/09/17","15:10",0.0,29.6,69.1,1003.1,243.8,1.2,3.2,14.9,0.03,23.4,27.6,"15:05:20",1
"20/09/17","15:20",0.0,29.5,70.2,1003.1,238.1,1.0,3.9,232.2,0.03,23.5,27.4,"15:12:00",1
"20/09/17","15:30",0.0,29.4,70.8,1002.6,269.8,0.7,2.2,236.5,0.04,23.6,27.5,"15:29:04",1
"20/09/17","15:40",0.0,29.4,71.4,1002.4,236.5,1.1,3.6,227.7,0.04,23.7,27.6,"15:31:04",1
"20/09/17","15:50",0.0,29.3,71.8,1002.6,271.1,1.0,2.6,240.8,0.03,23.7,27.4,"15:48:32",1
"20/09/17","16:00",0.0,29.0,72.6,1002.4,223.4,1.6,3.7,231.0,0.01,23.6,27.3,"15:53:44",1
"20/09/17","16:10",0.0,28.8,73.8,1002.4,231.6,2.5,5.8,220.3,0.01,23.7,27.3,"16:04:08",1
"20/09/17","16:20",0.0,28.8,74.4,1002.9,223.3,2.2,5.0,223.8,0.03,23.8,27.3,"16:18:08",1
"20/09/17","16:30",0.0,28.8,74.6,1002.4,246.5,1.2,2.8,237.9,0.02,23.9,27.2,"16:22:24",1
"20/09/17","16:40",0.0,28.7,75.0,1002.6,288.8,0.8,2.2,328.0,0.01,23.9,27.3,"16:39:52",1
"20/09/17","16:50",0.0,28.5,74.9,1003.1,225.2,1.5,3.5,223.0,0.00,23.7,27.1,"16:45:44",1
"20/09/17","17:00",0.0,28.3,75.1,1003.4,248.6,1.5,3.7,216.1,0.01,23.5,27.1,"16:50:48",1
"20/09/17","17:10",0.0,28.3,75.3,1003.6,291.4,1.0,1.8,319.0,0.00,23.5,27.0,"17:04:00",1
"20/09/17","17:20",0.0,28.1,75.8,1003.6,314.9,1.0,2.0,340.6,0.00,23.5,27.2,"17:18:48",1
"20/09/17","17:30",0.0,28.0,76.4,1003.6,319.0,1.3,3.1,335.7,0.00,23.5,26.9,"17:26:16",1
"20/09/17","17:40",0.0,27.9,76.8,1003.6,308.8,1.0,2.1,332.6,0.00,23.5,26.9,"17:31:12",1
"20/09/17","17:50",0.0,27.8,77.3,1003.6,282.9,0.8,2.2,124.7,0.00,23.5,26.9,"17:43:52",1
"20/09/17","18:00",0.0,27.7,77.5,1003.6,294.0,1.1,2.5,328.1,0.00,23.4,26.8,"17:52:56",1
"20/09/17","18:10",0.0,27.7,77.5,1003.8,262.0,1.5,3.2,222.5,0.00,23.4,26.8,"18:03:44",1
"20/09/17","18:20",0.0,27.8,77.4,1003.6,265.1,1.5,3.9,233.5,0.00,23.5,26.8,"18:10:40",1
"20/09/17","18:30",0.0,27.8,77.4,1003.6,275.4,1.5,2.9,310.6,0.00,23.5,26.5,"18:20:56",1
"20/09/17","18:40",0.0,27.7,77.7,1003.6,270.4,1.6,4.0,230.7,0.00,23.5,26.6,"18:30:32",1
"20/09/17","18:50",0.6,27.7,78.4,1003.4,269.3,1.2,2.9,226.8,0.00,23.6,26.5,"18:40:08",1
"20/09/17","19:00",0.2,27.0,80.7,1004.1,275.7,1.0,1.9,305.8,0.00,23.4,26.6,"18:51:12",1
"20/09/17","19:10",1.0,26.6,82.2,1003.8,326.4,0.6,1.9,214.0,0.00,23.4,26.4,"19:00:16",1
"20/09/17","19:20",0.6,26.3,83.8,1004.1,349.1,0.5,1.1,350.7,0.00,23.4,26.5,"19:10:56",1
"20/09/17","19:30",1.0,26.0,85.5,1004.1,343.8,1.0,1.9,346.1,0.00,23.4,26.4,"19:22:08",1
"20/09/17","19:40",0.2,25.8,86.8,1004.3,346.1,1.0,1.9,342.8,0.00,23.5,26.2,"19:33:52",1
"20/09/17","19:50",0.0,25.7,87.8,1004.8,339.7,1.0,2.0,346.9,0.00,23.6,26.2,"19:45:28",1
"20/09/17","20:00",0.2,25.6,88.4,1004.8,310.1,0.5,2.0,296.4,0.00,23.6,26.3,"19:56:16",1
"20/09/17","20:10",0.0,25.6,88.9,1004.8,145.7,0.3,0.9,117.0,0.00,23.7,26.2,"20:04:24",1
"20/09/17","20:20",0.0,25.6,89.5,1004.5,27.8,0.5,1.1,13.7,0.00,23.8,26.1,"20:17:44",1
"20/09/17","20:30",0.0,25.5,90.0,1004.8,353.8,0.7,2.4,345.1,0.00,23.8,26.0,"20:29:12",1
"20/09/17","20:40",0.0,25.4,90.4,1005.0,13.4,1.3,2.4,10.4,0.00,23.8,26.1,"20:33:52",1
"20/09/17","20:50",0.0,25.3,90.7,1005.0,350.3,0.8,1.8,339.3,0.00,23.7,26.1,"20:40:32",1
"20/09/17","21:00",0.0,25.2,91.1,1005.0,324.6,0.8,2.0,348.7,0.00,23.7,25.8,"20:58:40",1
"20/09/17","21:10",0.0,25.1,91.4,1005.5,339.9,0.7,1.7,341.0,0.00,23.6,26.0,"21:06:32",1
"20/09/17","21:20",0.0,25.0,91.7,1005.0,354.7,0.7,1.4,331.3,0.00,23.6,25.9,"21:10:32",1
"20/09/17","21:30",0.0,25.0,91.9,1005.0,351.0,0.7,2.0,3.0,0.00,23.6,25.9,"21:26:24",1
"20/09/17","21:40",0.0,25.0,92.1,1005.2,357.3,0.5,1.3,336.4,0.00,23.7,26.0,"21:30:08",1
"20/09/17","21:50",0.0,24.9,92.3,1005.2,345.1,0.7,1.8,11.0,0.00,23.6,25.7,"21:45:20",1
"20/09/17","22:00",0.0,24.9,92.5,1005.0,356.2,1.1,2.2,350.9,0.00,23.6,25.9,"21:56:32",1
"20/09/17","22:10",0.0,24.8,92.7,1004.8,309.0,0.7,1.4,338.5,0.00,23.6,25.7,"22:01:12",1
"20/09/17","22:20",0.0,24.8,92.8,1005.0,329.3,1.1,2.6,353.1,0.00,23.6,25.8,"22:17:52",1
"20/09/17","22:30",0.0,24.7,93.0,1005.0,317.5,0.7,1.4,320.2,0.00,23.5,25.7,"22:20:08",1
"20/09/17","22:40",0.0,24.7,93.1,1004.8,288.5,0.5,1.6,339.3,0.00,23.5,25.7,"22:39:52",1
"20/09/17","22:50",0.0,24.7,93.2,1004.8,328.7,1.0,1.9,316.3,0.00,23.6,25.8,"22:45:12",1
"20/09/17","23:00",0.0,24.7,93.3,1004.8,311.9,1.0,1.9,322.8,0.00,23.6,25.8,"22:51:44",1
"20/09/17","23:10",0.0,24.7,93.4,1004.5,303.7,1.0,2.1,354.6,0.00,23.6,25.7,"23:03:20",1
"20/09/17","23:20",0.0,24.8,93.5,1004.5,328.6,0.5,1.3,349.9,0.00,23.7,25.6,"23:18:24",1
"20/09/17","23:30",0.0,24.8,93.5,1004.5,353.2,0.7,1.4,325.8,0.00,23.7,25.7,"23:22:40",1
"20/09/17","23:40",0.0,24.8,93.6,1004.3,350.5,0.5,1.0,4.9,0.00,23.7,25.8,"23:33:20",1
"20/09/17","23:50",0.0,24.8,93.7,1004.3,320.2,0.7,1.2,340.4,0.00,23.8,25.4,"23:48:00",1
"20/09/17","24:00",0.0,24.8,93.8,1004.5,332.7,0.5,1.1,358.1,0.00,23.8,25.4,"23:52:08",1
